sat.trackr.live / text

‹ back to catalog

D-STAR ONE (SPARROW)

NORAD 43881 · 2018-111F

PAYLOAD ACTIVE UNKNOWN

§ Identity

Operator
Country
GER
Launch date
2018-12-27
Launch site
VOSTO
Launch vehicle
Mass (kg)
RCS (m²)

External: N2YO · Heavens-Above · Gunter

§ Orbital elements

Epoch: 2026-08-15T19:42:38.642112Z

Period
88.47 min
Inclination
97.5934°
Eccentricity
0.0011221
Mean motion
16.27609453 rev/d
Perigee alt
191.6 km
Apogee alt
206.4 km
Semi-major
6,577.1 km
B*
1.0781e-3
RAAN
175.7283°
Arg perigee
186.0963°
Mean anomaly
174.0194°
Rev number
42,084

§ Raw data

D-STAR ONE (SPARROW)1 43881U 18111F   26227.82128058  .03832640  26023-5  10781-2 0  99922 43881  97.5934 175.7283 0011221 186.0963 174.0194 16.27609453420843

JSON: /api/v1/satellites/43881 · /tle

For live sub-satellite position, see the globe view (requires WebGL).

§ Visibility from observer

Set your observer location to see the next 7 days of passes ≥ 10°. The values pass through the URL so the page stays shareable.

No JS? Fill the form by hand. The geolocation button needs JavaScript.

§ Radio — SatNOGS DB

ModeDescriptionDownlinkUplink
GMSK GMSK4k8 Mobitex TLM (inactive) 435.700 MHz
DSTAR MODE U/U DSTAR VOICE (inactive) 435.525 MHz 437.325 MHz
FM TLM (inactive) 435.700 MHz

3 transmitters · refreshed weekly from db.satnogs.org